COSMOS 2242 (22626 NORAD) Tracking and Keplerian Element Data

This shows tracking and keplerian element data for the satellite.

Feedback or suggestion? Click here.




ElementValue
Catalog22626
NameCOSMOS 2242
Epoch Orbit36469
Epoch Day198.94465163
Epoch Year2018
RAAN28.6758
Inclination82.5208
Eccentricity0.0017556
Argument of Perigee245.3275
Mean Anonmoly114.6115
Mean Motion14.8781813
Decay Rate1.32E-06
L11 22626U 93024A 18198.94465163 .00000132 00000-0 11688-4 0 9995
L22 22626 82.5208 28.6758 0017556 245.3275 114.6115 14.87818130364691

Live tracking and technical data element details for COSMOS 2242 (NORAD 22626). COSMOS 2242 can be tracked NOW for your location showing map with azimuth and elevation plus other details from your city location.

Track the satellite on the map from your city or location and see movement details for azimuth, elevation, latitude, longitude, range, height, and movement on the map or in text.







IsCatalogInMostPopularTable: catalog: 22626, numindb: 31
Update: records affected: 1



GetName: 22626 COSMOS 2242

Hit Count: updated at: Fri, 20 Jul 2018 20:35:34 GMT